This is the latest recevied weather packets stored in our database for station/object DG1JLA-3. If no packets are shown the sender has not sent any weather packets the latest 10 day(s).
| Time | Temp. | Humidity | Pressure | Rain* | Wind** | Luminosity | Snow |
|---|---|---|---|---|---|---|---|
| 1777801198 | 25° C | 34% | 1016.7 hPa | 0 mm | - | - | - |
| 1777800898 | 25° C | 34% | 1016.7 hPa | 0 mm | - | - | - |
| 1777800598 | 25.56° C | 34% | 1016.9 hPa | 0 mm | - | - | - |
| 1777800298 | 25.56° C | 35% | 1016.8 hPa | 0 mm | - | - | - |
| 1777799998 | 25° C | 35% | 1016.9 hPa | 0 mm | - | - | - |
| 1777799698 | 25° C | 33% | 1016.8 hPa | 0 mm | - | - | - |
| 1777799398 | 25° C | 34% | 1016.9 hPa | 0 mm | - | - | - |
| 1777799098 | 25° C | 34% | 1017 hPa | 0 mm | - | - | - |
| 1777798798 | 25° C | 34% | 1017 hPa | 0 mm | - | - | - |
| 1777798498 | 24.44° C | 34% | 1016.9 hPa | 0 mm | - | - | - |
| 1777798198 | 24.44° C | 34% | 1017 hPa | 0 mm | - | - | - |
| 1777797898 | 24.44° C | 33% | 1017.1 hPa | 0 mm | - | - | - |
| 1777797598 | 24.44° C | 33% | 1017.1 hPa | 0 mm | - | - | - |
| 1777797298 | 24.44° C | 34% | 1017.1 hPa | 0 mm | - | - | - |
| 1777796998 | 24.44° C | 35% | 1017.2 hPa | 0 mm | - | - | - |
| 1777796698 | 24.44° C | 35% | 1017.2 hPa | 0 mm | - | - | - |
| 1777796398 | 24.44° C | 36% | 1017.3 hPa | 0 mm | - | - | - |
| 1777796098 | 24.44° C | 36% | 1017.3 hPa | 0 mm | - | - | - |
| 1777795798 | 23.89° C | 37% | 1017.3 hPa | 0 mm | - | - | - |
| 1777795498 | 23.33° C | 36% | 1017.3 hPa | 0 mm | - | - | - |
| 1777795198 | 23.33° C | 38% | 1017.3 hPa | 0 mm | - | - | - |
| 1777794898 | 22.78° C | 41% | 1017.4 hPa | 0 mm | - | - | - |
| 1777794598 | 22.22° C | 41% | 1017.3 hPa | 0 mm | - | - | - |
| 1777794298 | 21.67° C | 48% | 1017.3 hPa | 0 mm | - | - | - |
| 1777793998 | 20.56° C | 49% | 1017.3 hPa | 0 mm | - | - | - |
* Rain latest hour (hover to see other rain measurements)
** Current wind speed in m/s (hover to see current wind gust speed)